Regional Weather Roundup
Issued by NWS

Home | Current Version | Previous Version | Graphics & Text | Print | Product List | Glossary On
Versions: 1 2 3 4 5 6 7 8 9 10 11 12 13 14 15 16 17 18 19 20 21 22 23 24 25 26 27 28 29 30 31 32 33 34 35 36 37 38 39 40 41 42 43 44 45 46 47 48 49 50
000
ASUS43 KIND 040459
RWRIN

WEATHER ROUNDUP FOR INDIANA
NATIONAL WEATHER SERVICE INDIANAPOLIS IN
1200 AM EST WED MAR 04 2015

NOTE: "FAIR" INDICATES FEW OR NO CLOUDS BELOW 12,000 FEET WITH NO
SIGNIFICANT WEATHER AND/OR OBSTRUCTIONS TO VISIBILITY.

* - STATION DOES NOT REPORT WEATHER SUCH AS PRECIPITATION OR FOG.

+ - STATION NOT QUALITY CONTROLLED BY THE NATIONAL WEATHER SERVICE.
    USE DATA WITH CAUTION...ESPECIALLY DEWPOINT AND RELATIVE
    HUMIDITY OBSERVATIONS.

INZ001>003-010>013-019-020-040600-
NORTHWEST INDIANA

CITY           SKY/WX    TMP DP  RH WIND       PRES   REMARKS
VALPARAISO     CLOUDY    34  25  69 NW16G23   29.84F WCI  23

$$

LMZ046-743>745-040600-
SOUTHERN LAKE MICHIGAN

STATION/POSITION TIME  TEMP WIND        PRES
                       AIR  DIR/SP/G
                 (UTC) (F)  (DEG/KT/KT) (MB)
MICHIGAN CITY    0400   33  260/ 13/ 15   N/A

$$

INZ004-005-014>016-021>024-040600-
NORTH CENTRAL INDIANA

CITY           SKY/WX    TMP DP  RH WIND       PRES   REMARKS
GOSHEN         CLOUDY    34  28  79 W14       29.82R WCI  25
SOUTH BEND     CLOUDY    33 N/A N/A NW15      29.83F WCI  23

$$

INZ006>009-017-018-025>027-040600-
NORTHEAST INDIANA

CITY           SKY/WX    TMP DP  RH WIND       PRES   REMARKS
ANGOLA *+      CLOUDY    34  28  80 NW9       29.78R WCI  26
FORT WAYNE     CLOUDY    34  30  85 W15       29.84R WCI  24

$$

INZ028-029-035-036-043>045-051>053-040600-
WEST CENTRAL INDIANA

CITY           SKY/WX    TMP DP  RH WIND       PRES   REMARKS
CRAWFORDSVL +  CLOUDY    33  29  85 W8        29.89R WCI  26
GREENCASTLE +  RAIN      36  32  87 W6        29.90R
LAFAYETTE      CLOUDY    33  31  92 W6        29.89R WCI  28
TERRE HAUTE    LGT RAIN  35  34  96 N5        29.92R FOG     WCI  31

$$

INZ030>032-037>040-046>048-054>057-064-065-040600-
CENTRAL INDIANA

CITY           SKY/WX    TMP DP  RH WIND       PRES   REMARKS
GREENWOOD *+   CLOUDY    36  32  87 W8        29.90F
INDIANAPOLIS   LGT RAIN  35  33  92 W8        29.88S FOG     WCI  29
-EAGLE CREEK   LGT RAIN  35  34  96 W3        29.87F FOG
KOKOMO *+      CLOUDY    34  30  86 W12       29.87S WCI  25
MT COMFORT *+  CLOUDY    36 N/A N/A W8        29.89S
SHELBYVILLE    LGT RAIN  38  35  89 W7        29.89S FOG

$$

INZ033-034-041-042-049-050-058-059-040600-
EAST CENTRAL INDIANA

CITY           SKY/WX    TMP DP  RH WIND       PRES   REMARKS
MUNCIE         CLOUDY    35  33  92 W10       29.86R WCI  27

$$

INZ060-061-067>069-081>083-085>088-040600-
SOUTHWEST INDIANA

CITY           SKY/WX    TMP DP  RH WIND       PRES   REMARKS
EVANSVILLE     LGT RAIN  45  42  89 NW5       29.93R FOG
HUNTINGBURG *+ CLOUDY    43  39  87 NW6       29.91S

$$

INZ062-063-066-070>080-084-089>092-040600-
SOUTH CENTRAL AND SOUTHEAST INDIANA

CITY           SKY/WX    TMP DP  RH WIND       PRES   REMARKS
BLOOMINGTON    RAIN      39  38  96 NW5       29.89F FOG
SEYMOUR +      RAIN      37  37 100 CALM      29.89F VSB 1/2

$$



USA.gov is the U.S. government's official web portal to all federal, state and local government web resources and services.